VOI559 MMHO-MMGL

Flight info

Callsign VOI559
Flight time 1h 46m
Altitude 37000
Route SEBEK1B SEBEK UJ7 AMULA AMULA1B
Aircraft A20N/M-SDE2E3FGHIRWXY/LB1

Departure

Time 2026-05-05 02:07
Airport General Ignacio L. Pesqueira International Airport (MMHO)

Arrival

Time 2026-05-05 03:53
Airport Guadalajara International Airport (MMGL)
Time Latitude Longitude Altitude Speed Heading
2026-05-05 01:27 29.09047 -111.05270 643 ft 0 kts 149°
2026-05-05 01:57 29.09049 -111.05272 643 ft 2 kts 149°
2026-05-05 01:57 29.09064 -111.05283 645 ft 3 kts 143°
2026-05-05 01:57 29.09080 -111.05297 643 ft 3 kts 133°
2026-05-05 01:58 29.09092 -111.05315 644 ft 3 kts 108°
2026-05-05 01:58 29.09094 -111.05333 642 ft 2 kts 63°
2026-05-05 01:58 29.09093 -111.05336 644 ft 1 kts 58°
2026-05-05 02:00 29.09097 -111.05329 643 ft 4 kts 59°
2026-05-05 02:00 29.09121 -111.05282 644 ft 9 kts 59°
2026-05-05 02:01 29.09159 -111.05209 642 ft 12 kts 59°
2026-05-05 02:01 29.09207 -111.05119 644 ft 14 kts 58°
2026-05-05 02:01 29.09263 -111.05014 643 ft 17 kts 59°
2026-05-05 02:01 29.09327 -111.04893 645 ft 19 kts 59°
2026-05-05 02:02 29.09370 -111.04751 644 ft 20 kts 95°
2026-05-05 02:02 29.09387 -111.04614 644 ft 17 kts 49°
2026-05-05 02:02 29.09467 -111.04509 645 ft 19 kts 54°
2026-05-05 02:02 29.09547 -111.04383 647 ft 20 kts 54°
2026-05-05 02:03 29.09632 -111.04246 648 ft 22 kts 54°
2026-05-05 02:03 29.09695 -111.04159 647 ft 12 kts 32°
2026-05-05 02:03 29.09771 -111.04185 648 ft 9 kts 329°
2026-05-05 02:03 29.09785 -111.04194 648 ft 0 kts 328°
2026-05-05 02:06 29.09798 -111.04203 649 ft 4 kts 329°
2026-05-05 02:06 29.09835 -111.04228 647 ft 8 kts 329°
2026-05-05 02:06 29.09844 -111.04291 646 ft 11 kts 242°
2026-05-05 02:07 29.09751 -111.04468 643 ft 59 kts 239°
2026-05-05 02:07 29.09418 -111.05094 641 ft 123 kts 238°
2026-05-05 02:07 29.08894 -111.06072 851 ft 150 kts 237°
2026-05-05 02:07 29.08383 -111.07086 1487 ft 149 kts 238°
2026-05-05 02:08 29.07840 -111.08112 2127 ft 151 kts 238°
2026-05-05 02:08 29.07273 -111.09158 2709 ft 157 kts 237°
2026-05-05 02:08 29.06654 -111.10230 3139 ft 171 kts 235°
2026-05-05 02:08 29.05981 -111.11443 3566 ft 191 kts 239°
2026-05-05 02:09 29.05267 -111.12826 3989 ft 215 kts 239°
2026-05-05 02:09 29.04478 -111.14358 4470 ft 236 kts 238°
2026-05-05 02:09 29.03438 -111.15911 4892 ft 258 kts 217°
2026-05-05 02:09 29.01790 -111.16806 5598 ft 265 kts 193°
2026-05-05 02:10 28.99961 -111.16917 6376 ft 271 kts 172°
2026-05-05 02:10 28.98139 -111.16305 7171 ft 277 kts 157°
2026-05-05 02:10 28.96440 -111.15214 7948 ft 284 kts 148°
2026-05-05 02:10 28.94827 -111.13869 8719 ft 290 kts 144°
2026-05-05 02:11 28.93238 -111.12412 9498 ft 295 kts 143°
2026-05-05 02:11 28.91639 -111.10913 10233 ft 302 kts 143°
2026-05-05 02:11 28.89951 -111.09342 10509 ft 325 kts 143°
2026-05-05 02:11 28.88130 -111.07666 10751 ft 346 kts 144°
2026-05-05 02:12 28.86238 -111.05930 11400 ft 350 kts 144°
2026-05-05 02:12 28.82408 -111.02423 12881 ft 357 kts 145°
2026-05-05 02:12 28.80460 -111.00643 13635 ft 360 kts 146°
2026-05-05 02:13 28.78499 -110.98852 14288 ft 363 kts 146°
2026-05-05 02:13 28.76517 -110.97043 14920 ft 367 kts 147°
2026-05-05 02:13 28.74514 -110.95215 15567 ft 370 kts 147°
2026-05-05 02:13 28.72495 -110.93372 16213 ft 374 kts 147°
2026-05-05 02:14 28.70486 -110.91537 16842 ft 377 kts 148°
2026-05-05 02:14 28.68433 -110.89663 17471 ft 380 kts 148°
2026-05-05 02:14 28.66335 -110.87748 18099 ft 384 kts 148°
2026-05-05 02:14 28.64270 -110.85863 18618 ft 387 kts 149°
2026-05-05 02:15 28.62162 -110.83938 19151 ft 390 kts 149°
2026-05-05 02:15 28.60025 -110.81988 19651 ft 395 kts 149°
2026-05-05 02:15 28.57875 -110.80025 20199 ft 398 kts 149°
2026-05-05 02:15 28.55711 -110.78051 20704 ft 401 kts 150°
2026-05-05 02:16 28.53522 -110.76053 21207 ft 405 kts 150°
2026-05-05 02:16 28.51314 -110.74036 21710 ft 409 kts 150°
2026-05-05 02:16 28.49088 -110.72001 22194 ft 412 kts 150°
2026-05-05 02:16 28.46842 -110.69950 22667 ft 416 kts 150°
2026-05-05 02:17 28.44575 -110.67878 23148 ft 419 kts 151°
2026-05-05 02:17 28.42291 -110.65790 23591 ft 423 kts 151°
2026-05-05 02:17 28.40771 -110.64401 23861 ft 425 kts 151°
2026-05-05 02:17 28.38456 -110.62285 24254 ft 428 kts 151°
2026-05-05 02:18 28.36128 -110.60157 24647 ft 431 kts 151°
2026-05-05 02:18 28.33784 -110.58014 25031 ft 434 kts 150°
2026-05-05 02:18 28.31430 -110.55862 25411 ft 437 kts 150°
2026-05-05 02:18 28.29055 -110.53690 25774 ft 440 kts 150°
2026-05-05 02:19 28.26662 -110.51502 26146 ft 442 kts 150°
2026-05-05 02:19 28.24265 -110.49311 26505 ft 445 kts 150°
2026-05-05 02:19 28.21844 -110.47097 26899 ft 446 kts 150°
2026-05-05 02:19 28.19416 -110.44875 27217 ft 450 kts 150°
2026-05-05 02:20 28.16973 -110.42642 27538 ft 453 kts 150°
2026-05-05 02:20 28.14509 -110.40389 27869 ft 455 kts 150°
2026-05-05 02:20 28.12044 -110.38133 28153 ft 458 kts 150°
2026-05-05 02:20 28.09555 -110.35858 28434 ft 461 kts 150°
2026-05-05 02:21 28.07053 -110.33569 28779 ft 463 kts 150°
2026-05-05 02:21 28.04538 -110.31265 29091 ft 466 kts 150°
2026-05-05 02:21 28.02012 -110.28951 29391 ft 469 kts 150°
2026-05-05 02:21 27.99465 -110.26619 29682 ft 471 kts 150°
2026-05-05 02:22 27.96904 -110.24315 29980 ft 470 kts 153°
2026-05-05 02:22 27.94191 -110.22282 30229 ft 466 kts 158°
2026-05-05 02:22 27.91464 -110.20361 30512 ft 468 kts 157°
2026-05-05 02:22 27.88702 -110.18409 30799 ft 470 kts 157°
2026-05-05 02:23 27.85924 -110.16442 31100 ft 471 kts 157°
2026-05-05 02:23 27.83145 -110.14473 31448 ft 471 kts 157°
2026-05-05 02:23 27.80371 -110.12508 31834 ft 470 kts 157°
2026-05-05 02:23 27.77601 -110.10548 32193 ft 469 kts 158°
2026-05-05 02:24 27.74840 -110.08597 32556 ft 468 kts 158°
2026-05-05 02:24 27.72080 -110.06650 32892 ft 468 kts 158°
2026-05-05 02:24 27.69315 -110.04700 33230 ft 467 kts 158°
2026-05-05 02:24 27.66570 -110.02765 33550 ft 467 kts 158°
2026-05-05 02:25 27.63811 -110.00822 33873 ft 466 kts 158°
2026-05-05 02:25 27.61066 -109.98890 34145 ft 466 kts 158°
2026-05-05 02:25 27.58311 -109.96951 34373 ft 466 kts 158°
2026-05-05 02:25 27.55564 -109.95020 34599 ft 466 kts 158°
2026-05-05 02:26 27.52809 -109.93085 34822 ft 466 kts 158°
2026-05-05 02:26 27.50053 -109.91149 35031 ft 467 kts 158°
2026-05-05 02:26 27.47297 -109.89215 35243 ft 467 kts 158°
2026-05-05 02:26 27.44535 -109.87278 35458 ft 467 kts 158°
2026-05-05 02:27 27.41779 -109.85345 35676 ft 467 kts 158°
2026-05-05 02:27 27.39052 -109.83317 35875 ft 474 kts 152°
2026-05-05 02:27 27.36469 -109.80978 36077 ft 478 kts 149°
2026-05-05 02:27 27.33905 -109.78593 36272 ft 478 kts 149°
2026-05-05 02:28 27.31374 -109.76247 36469 ft 478 kts 149°
2026-05-05 02:28 27.28773 -109.73843 36660 ft 478 kts 149°
2026-05-05 02:28 27.26238 -109.71503 36842 ft 478 kts 149°
2026-05-05 02:28 27.23659 -109.69126 36951 ft 480 kts 149°
2026-05-05 02:29 27.21071 -109.66745 36959 ft 484 kts 149°
2026-05-05 02:29 27.15810 -109.61907 36960 ft 492 kts 149°
2026-05-05 02:30 27.10477 -109.57003 36951 ft 498 kts 149°
2026-05-05 02:30 27.05108 -109.52069 36955 ft 500 kts 149°
2026-05-05 02:31 26.99731 -109.47134 36955 ft 499 kts 149°
2026-05-05 02:31 26.94348 -109.42207 36955 ft 500 kts 149°
2026-05-05 02:32 26.88962 -109.37282 36955 ft 499 kts 149°
2026-05-05 02:32 26.83573 -109.32361 36957 ft 499 kts 149°
2026-05-05 02:33 26.78182 -109.27444 36958 ft 499 kts 149°
2026-05-05 02:33 26.72831 -109.22569 36960 ft 499 kts 149°
2026-05-05 02:34 26.67445 -109.17670 36956 ft 499 kts 148°
2026-05-05 02:34 26.62053 -109.12772 36955 ft 499 kts 148°
2026-05-05 02:35 26.56670 -109.07886 36958 ft 499 kts 148°
2026-05-05 02:35 26.51282 -109.03003 36954 ft 498 kts 148°
2026-05-05 02:36 26.45901 -108.98132 36953 ft 498 kts 148°
2026-05-05 02:36 26.40512 -108.93260 36955 ft 498 kts 148°
2026-05-05 02:37 26.35128 -108.88399 36951 ft 498 kts 148°
2026-05-05 02:37 26.29738 -108.83537 36950 ft 498 kts 148°
2026-05-05 02:38 26.24348 -108.78682 36951 ft 498 kts 148°
2026-05-05 02:38 26.18955 -108.73830 36949 ft 498 kts 148°
2026-05-05 02:39 26.13600 -108.69018 36946 ft 498 kts 148°
2026-05-05 02:39 26.08198 -108.64169 36949 ft 499 kts 148°
2026-05-05 02:40 26.02799 -108.59329 36941 ft 498 kts 148°
2026-05-05 02:40 25.97401 -108.54498 36943 ft 498 kts 148°
2026-05-05 02:41 25.91998 -108.49668 36938 ft 498 kts 148°
2026-05-05 02:41 25.86598 -108.44846 36934 ft 498 kts 148°
2026-05-05 02:42 25.81193 -108.40025 36938 ft 498 kts 148°
2026-05-05 02:42 25.75793 -108.35215 36938 ft 498 kts 148°
2026-05-05 02:43 25.70379 -108.30397 36935 ft 498 kts 148°
2026-05-05 02:43 25.64974 -108.25594 36934 ft 498 kts 147°
2026-05-05 02:44 25.59565 -108.20793 36939 ft 498 kts 147°
2026-05-05 02:44 25.54152 -108.15994 36937 ft 498 kts 147°
2026-05-05 02:45 25.48740 -108.11203 36937 ft 498 kts 147°
2026-05-05 02:45 25.43326 -108.06417 36939 ft 498 kts 147°
2026-05-05 02:46 25.37907 -108.01633 36939 ft 498 kts 147°
2026-05-05 02:46 25.32493 -107.96858 36938 ft 498 kts 147°
2026-05-05 02:47 25.27108 -107.92115 36943 ft 497 kts 147°
2026-05-05 02:47 25.21690 -107.87353 36939 ft 497 kts 147°
2026-05-05 02:48 25.16276 -107.82597 36943 ft 497 kts 147°
2026-05-05 02:48 25.10862 -107.77848 36938 ft 497 kts 147°
2026-05-05 02:49 25.05442 -107.73097 36940 ft 497 kts 147°
2026-05-05 02:49 25.01827 -107.69927 36933 ft 497 kts 147°
2026-05-05 02:50 24.98647 -107.67140 36932 ft 497 kts 147°
2026-05-05 02:50 24.93224 -107.62393 36934 ft 497 kts 147°
2026-05-05 02:51 24.87807 -107.57657 36934 ft 497 kts 147°
2026-05-05 02:51 24.82392 -107.52929 36928 ft 497 kts 147°
2026-05-05 02:52 24.76968 -107.48201 36943 ft 497 kts 148°
2026-05-05 02:52 24.71377 -107.43867 36940 ft 494 kts 150°
2026-05-05 02:53 24.65731 -107.39562 36938 ft 494 kts 150°
2026-05-05 02:53 24.60081 -107.35254 36930 ft 494 kts 150°
2026-05-05 02:54 24.54436 -107.30955 36937 ft 493 kts 150°
2026-05-05 02:54 24.48797 -107.26665 36941 ft 493 kts 150°
2026-05-05 02:55 24.43162 -107.22384 36936 ft 493 kts 150°
2026-05-05 02:55 24.37596 -107.17974 36945 ft 497 kts 143°
2026-05-05 02:56 24.32452 -107.12907 36936 ft 497 kts 142°
2026-05-05 02:56 24.27318 -107.07834 36938 ft 497 kts 142°
2026-05-05 02:57 24.22173 -107.02765 36943 ft 497 kts 143°
2026-05-05 02:57 24.17036 -106.97714 36941 ft 497 kts 143°
2026-05-05 02:58 24.11920 -106.92690 36940 ft 496 kts 143°
2026-05-05 02:58 24.06783 -106.87650 36941 ft 496 kts 143°
2026-05-05 02:59 24.01635 -106.82607 36935 ft 496 kts 143°
2026-05-05 02:59 23.96490 -106.77571 36940 ft 496 kts 143°
2026-05-05 03:00 23.91335 -106.72529 36940 ft 496 kts 143°
2026-05-05 03:00 23.86187 -106.67503 36939 ft 496 kts 143°
2026-05-05 03:01 23.81075 -106.62516 36941 ft 495 kts 142°
2026-05-05 03:01 23.75933 -106.57506 36940 ft 495 kts 142°
2026-05-05 03:02 23.70793 -106.52504 36944 ft 495 kts 142°
2026-05-05 03:02 23.65620 -106.47474 36943 ft 495 kts 142°
2026-05-05 03:03 23.60514 -106.42515 36945 ft 494 kts 142°
2026-05-05 03:03 23.56214 -106.38343 36947 ft 494 kts 142°
2026-05-05 03:04 23.51078 -106.33364 36948 ft 494 kts 142°
2026-05-05 03:04 23.46296 -106.28734 36944 ft 494 kts 142°
2026-05-05 03:05 23.41248 -106.23852 36946 ft 494 kts 142°
2026-05-05 03:05 23.36112 -106.18889 36947 ft 493 kts 142°
2026-05-05 03:06 23.30977 -106.13933 36946 ft 493 kts 142°
2026-05-05 03:06 23.25884 -106.09023 36948 ft 492 kts 142°
2026-05-05 03:07 23.20753 -106.04082 36949 ft 493 kts 142°
2026-05-05 03:07 23.15624 -105.99146 36949 ft 492 kts 142°
2026-05-05 03:08 23.10494 -105.94215 36954 ft 492 kts 142°
2026-05-05 03:08 23.05368 -105.89294 36952 ft 492 kts 142°
2026-05-05 03:09 23.00240 -105.84376 36945 ft 491 kts 142°
2026-05-05 03:09 22.95109 -105.79461 36961 ft 492 kts 142°
2026-05-05 03:10 22.89981 -105.74554 36960 ft 491 kts 142°
2026-05-05 03:10 22.84911 -105.69703 36838 ft 477 kts 142°
2026-05-05 03:10 22.82499 -105.67363 36655 ft 468 kts 139°
2026-05-05 03:11 22.80310 -105.64763 36161 ft 467 kts 131°
2026-05-05 03:11 22.78452 -105.61855 35498 ft 470 kts 124°
2026-05-05 03:11 22.76735 -105.58854 34832 ft 471 kts 125°
2026-05-05 03:11 22.75004 -105.55845 34141 ft 471 kts 125°
2026-05-05 03:12 22.73259 -105.52825 33397 ft 472 kts 125°
2026-05-05 03:12 22.71511 -105.49811 32554 ft 474 kts 125°
2026-05-05 03:12 22.69748 -105.46777 31681 ft 478 kts 124°
2026-05-05 03:12 22.67964 -105.43709 30807 ft 482 kts 124°
2026-05-05 03:13 22.66170 -105.40624 30044 ft 484 kts 124°
2026-05-05 03:13 22.64383 -105.37549 29427 ft 479 kts 124°
2026-05-05 03:13 22.62622 -105.34519 29004 ft 473 kts 124°
2026-05-05 03:13 22.60877 -105.31520 28834 ft 471 kts 124°
2026-05-05 03:14 22.59122 -105.28510 28708 ft 475 kts 124°
2026-05-05 03:14 22.57361 -105.25491 28577 ft 474 kts 124°
2026-05-05 03:14 22.55604 -105.22480 28450 ft 472 kts 124°
2026-05-05 03:14 22.53855 -105.19482 28329 ft 470 kts 124°
2026-05-05 03:15 22.52110 -105.16495 28193 ft 470 kts 124°
2026-05-05 03:15 22.50367 -105.13511 28080 ft 468 kts 124°
2026-05-05 03:15 22.48633 -105.10545 27958 ft 466 kts 124°
2026-05-05 03:15 22.46899 -105.07582 27836 ft 466 kts 124°
2026-05-05 03:16 22.45166 -105.04622 27706 ft 465 kts 124°
2026-05-05 03:16 22.43441 -105.01678 27592 ft 464 kts 124°
2026-05-05 03:16 22.41712 -104.98728 27471 ft 463 kts 124°
2026-05-05 03:16 22.39991 -104.95795 27345 ft 462 kts 124°
2026-05-05 03:17 22.38289 -104.92895 27228 ft 461 kts 124°
2026-05-05 03:17 22.36577 -104.89978 27103 ft 460 kts 124°
2026-05-05 03:17 22.34863 -104.87059 26985 ft 459 kts 124°
2026-05-05 03:17 22.33155 -104.84154 26862 ft 458 kts 124°
2026-05-05 03:18 22.31444 -104.81244 26739 ft 457 kts 124°
2026-05-05 03:18 22.29745 -104.78356 26631 ft 456 kts 124°
2026-05-05 03:18 22.28047 -104.75473 26500 ft 455 kts 124°
2026-05-05 03:18 22.26350 -104.72591 26384 ft 454 kts 124°
2026-05-05 03:19 22.22965 -104.66849 25708 ft 451 kts 124°
2026-05-05 03:19 22.21294 -104.64017 25332 ft 445 kts 124°
2026-05-05 03:19 22.19641 -104.61216 24822 ft 441 kts 124°
2026-05-05 03:20 22.17999 -104.58436 24260 ft 438 kts 124°
2026-05-05 03:20 22.16381 -104.55696 24035 ft 429 kts 124°
2026-05-05 03:20 22.14769 -104.52969 23775 ft 432 kts 124°
2026-05-05 03:20 22.13146 -104.50226 23403 ft 433 kts 123°
2026-05-05 03:21 22.11539 -104.47512 23134 ft 426 kts 123°
2026-05-05 03:21 22.09958 -104.44841 23008 ft 422 kts 123°
2026-05-05 03:21 22.08368 -104.42159 22875 ft 425 kts 123°
2026-05-05 03:21 22.06777 -104.39475 22753 ft 424 kts 123°
2026-05-05 03:22 22.05189 -104.36797 22623 ft 422 kts 123°
2026-05-05 03:22 22.03611 -104.34137 22494 ft 421 kts 123°
2026-05-05 03:22 22.02032 -104.31478 22375 ft 420 kts 123°
2026-05-05 03:22 22.00459 -104.28830 22255 ft 419 kts 123°
2026-05-05 03:23 21.98888 -104.26185 22127 ft 418 kts 123°
2026-05-05 03:23 21.97322 -104.23551 22005 ft 417 kts 123°
2026-05-05 03:23 21.95761 -104.20926 21884 ft 416 kts 123°
2026-05-05 03:23 21.94222 -104.18340 21753 ft 415 kts 123°
2026-05-05 03:24 21.92667 -104.15728 21635 ft 414 kts 123°
2026-05-05 03:24 21.91093 -104.13087 21509 ft 413 kts 123°
2026-05-05 03:24 21.89562 -104.10520 21387 ft 413 kts 123°
2026-05-05 03:24 21.88013 -104.07921 21268 ft 412 kts 123°
2026-05-05 03:25 21.86468 -104.05327 21146 ft 411 kts 123°
2026-05-05 03:25 21.84927 -104.02743 21027 ft 410 kts 123°
2026-05-05 03:25 21.83391 -104.00169 20905 ft 409 kts 123°
2026-05-05 03:25 21.81854 -103.97596 20780 ft 408 kts 123°
2026-05-05 03:26 21.80317 -103.95026 20662 ft 407 kts 124°
2026-05-05 03:26 21.78786 -103.92468 20546 ft 406 kts 123°
2026-05-05 03:26 21.77263 -103.89921 20427 ft 405 kts 124°
2026-05-05 03:26 21.75739 -103.87376 20303 ft 404 kts 123°
2026-05-05 03:27 21.74222 -103.84840 20187 ft 403 kts 123°
2026-05-05 03:27 21.72703 -103.82304 20074 ft 402 kts 123°
2026-05-05 03:27 21.71192 -103.79783 19958 ft 401 kts 123°
2026-05-05 03:27 21.69683 -103.77266 19841 ft 400 kts 123°
2026-05-05 03:28 21.68176 -103.74755 19727 ft 399 kts 123°
2026-05-05 03:28 21.66673 -103.72252 19608 ft 397 kts 123°
2026-05-05 03:28 21.65098 -103.69830 19483 ft 395 kts 132°
2026-05-05 03:28 21.63056 -103.67874 19380 ft 394 kts 147°
2026-05-05 03:29 21.60611 -103.66568 19262 ft 393 kts 162°
2026-05-05 03:29 21.57999 -103.65708 19152 ft 392 kts 163°
2026-05-05 03:29 21.55393 -103.64859 19044 ft 391 kts 163°
2026-05-05 03:29 21.52789 -103.64006 18931 ft 390 kts 163°
2026-05-05 03:30 21.50194 -103.63153 18821 ft 389 kts 163°
2026-05-05 03:30 21.47604 -103.62301 18714 ft 389 kts 163°
2026-05-05 03:30 21.45014 -103.61449 18597 ft 388 kts 162°
2026-05-05 03:30 21.42465 -103.60611 18491 ft 388 kts 162°
2026-05-05 03:31 21.39888 -103.59763 18381 ft 387 kts 162°
2026-05-05 03:31 21.37314 -103.58917 18263 ft 386 kts 162°
2026-05-05 03:31 21.34775 -103.58013 18123 ft 384 kts 155°
2026-05-05 03:31 21.32505 -103.56501 17999 ft 383 kts 139°
2026-05-05 03:32 21.30751 -103.54371 17867 ft 382 kts 122°
2026-05-05 03:32 21.29422 -103.51911 17750 ft 381 kts 119°
2026-05-05 03:32 21.28114 -103.49441 17620 ft 380 kts 119°
2026-05-05 03:32 21.26808 -103.46978 17493 ft 379 kts 120°
2026-05-05 03:33 21.25501 -103.44522 17365 ft 379 kts 120°
2026-05-05 03:33 21.24193 -103.42067 17234 ft 379 kts 120°
2026-05-05 03:33 21.22880 -103.39610 17115 ft 379 kts 120°
2026-05-05 03:33 21.21574 -103.37166 16986 ft 378 kts 120°
2026-05-05 03:34 21.20268 -103.34723 16856 ft 377 kts 120°
2026-05-05 03:34 21.18963 -103.32283 16739 ft 377 kts 120°
2026-05-05 03:34 21.17662 -103.29852 16615 ft 376 kts 120°
2026-05-05 03:34 21.16357 -103.27414 16491 ft 376 kts 120°
2026-05-05 03:35 21.15058 -103.24988 16274 ft 376 kts 120°
2026-05-05 03:35 21.13753 -103.22550 15736 ft 378 kts 120°
2026-05-05 03:35 21.12479 -103.20157 15485 ft 368 kts 120°
2026-05-05 03:35 21.11193 -103.17774 15399 ft 366 kts 122°
2026-05-05 03:36 21.09676 -103.15552 15237 ft 371 kts 130°
2026-05-05 03:36 21.07912 -103.13593 15078 ft 369 kts 136°
2026-05-05 03:36 21.06076 -103.11687 14913 ft 367 kts 135°
2026-05-05 03:36 21.04251 -103.09776 14757 ft 367 kts 135°
2026-05-05 03:37 21.02430 -103.07865 14583 ft 366 kts 135°
2026-05-05 03:37 21.00614 -103.05957 14429 ft 365 kts 135°
2026-05-05 03:37 20.98802 -103.04056 14264 ft 364 kts 135°
2026-05-05 03:37 20.96993 -103.02159 14104 ft 364 kts 135°
2026-05-05 03:38 20.95165 -103.00243 13938 ft 363 kts 135°
2026-05-05 03:38 20.93386 -102.98380 13775 ft 362 kts 135°
2026-05-05 03:38 20.91583 -102.96492 13608 ft 362 kts 135°
2026-05-05 03:38 20.89788 -102.94612 13449 ft 361 kts 135°
2026-05-05 03:39 20.87996 -102.92736 13283 ft 360 kts 135°
2026-05-05 03:39 20.86206 -102.90864 13125 ft 359 kts 136°
2026-05-05 03:39 20.84422 -102.88999 12967 ft 359 kts 136°
2026-05-05 03:39 20.82635 -102.87133 12844 ft 358 kts 136°
2026-05-05 03:40 20.80859 -102.85278 12832 ft 357 kts 136°
2026-05-05 03:40 20.79072 -102.83414 12833 ft 358 kts 136°
2026-05-05 03:40 20.77290 -102.81554 12832 ft 358 kts 136°
2026-05-05 03:40 20.75509 -102.79697 12831 ft 358 kts 136°
2026-05-05 03:41 20.73730 -102.77841 12833 ft 358 kts 136°
2026-05-05 03:41 20.71942 -102.75982 12833 ft 358 kts 137°
2026-05-05 03:41 20.69967 -102.74441 12755 ft 358 kts 154°
2026-05-05 03:41 20.67602 -102.73675 12518 ft 356 kts 174°
2026-05-05 03:42 20.65153 -102.73837 12281 ft 353 kts 195°
2026-05-05 03:42 20.62936 -102.74911 12039 ft 351 kts 216°
2026-05-05 03:42 20.61165 -102.76739 11814 ft 349 kts 229°
2026-05-05 03:42 20.59600 -102.78633 11721 ft 339 kts 229°
2026-05-05 03:43 20.58071 -102.80471 11618 ft 326 kts 228°
2026-05-05 03:43 20.56578 -102.82239 11503 ft 313 kts 228°
2026-05-05 03:43 20.55143 -102.83918 11369 ft 301 kts 227°
2026-05-05 03:43 20.53741 -102.85545 11068 ft 296 kts 227°
2026-05-05 03:44 20.52355 -102.87148 10722 ft 293 kts 228°
2026-05-05 03:44 20.50983 -102.88735 10482 ft 285 kts 228°
2026-05-05 03:44 20.49671 -102.90256 10388 ft 273 kts 228°
2026-05-05 03:44 20.48414 -102.91717 10277 ft 262 kts 228°
2026-05-05 03:45 20.47204 -102.93121 10159 ft 252 kts 229°
2026-05-05 03:45 20.46044 -102.94472 10028 ft 243 kts 229°
2026-05-05 03:45 20.44909 -102.95801 9710 ft 243 kts 229°
2026-05-05 03:45 20.43777 -102.97124 9500 ft 236 kts 228°
2026-05-05 03:46 20.42690 -102.98380 9406 ft 224 kts 228°
2026-05-05 03:46 20.41656 -102.99562 9243 ft 215 kts 228°
2026-05-05 03:46 20.40675 -103.00758 8934 ft 212 kts 240°
2026-05-05 03:46 20.40275 -103.02202 8840 ft 202 kts 271°
2026-05-05 03:47 20.40621 -103.03692 8850 ft 215 kts 292°
2026-05-05 03:47 20.41223 -103.05098 8855 ft 199 kts 292°
2026-05-05 03:47 20.41771 -103.06371 8863 ft 179 kts 292°
2026-05-05 03:47 20.42318 -103.07548 8807 ft 180 kts 294°
2026-05-05 03:48 20.42854 -103.08786 8611 ft 184 kts 292°
2026-05-05 03:48 20.43196 -103.09605 8476 ft 180 kts 292°
2026-05-05 03:48 20.43701 -103.10808 8264 ft 176 kts 292°
2026-05-05 03:48 20.44190 -103.11977 8068 ft 170 kts 293°
2026-05-05 03:49 20.44677 -103.13138 7879 ft 173 kts 292°
2026-05-05 03:49 20.45167 -103.14308 7690 ft 173 kts 293°
2026-05-05 03:49 20.45655 -103.15477 7503 ft 170 kts 293°
2026-05-05 03:49 20.46120 -103.16586 7325 ft 154 kts 293°
2026-05-05 03:50 20.46532 -103.17574 7163 ft 140 kts 292°
2026-05-05 03:50 20.46938 -103.18539 7044 ft 144 kts 293°
2026-05-05 03:50 20.47342 -103.19513 6879 ft 142 kts 292°
2026-05-05 03:50 20.47731 -103.20460 6705 ft 138 kts 294°
2026-05-05 03:51 20.48131 -103.21402 6557 ft 140 kts 294°
2026-05-05 03:51 20.48530 -103.22351 6392 ft 140 kts 294°
2026-05-05 03:51 20.48929 -103.23318 6247 ft 144 kts 294°
2026-05-05 03:51 20.49334 -103.24288 6098 ft 142 kts 292°
2026-05-05 03:52 20.49732 -103.25239 5937 ft 139 kts 292°
2026-05-05 03:52 20.50125 -103.26185 5754 ft 140 kts 292°
2026-05-05 03:52 20.50518 -103.27129 5538 ft 138 kts 293°
2026-05-05 03:52 20.50909 -103.28058 5330 ft 138 kts 294°
2026-05-05 03:53 20.51301 -103.29009 5149 ft 141 kts 293°
2026-05-05 03:53 20.51698 -103.29958 5039 ft 134 kts 294°
2026-05-05 03:53 20.52045 -103.30777 5027 ft 101 kts 293°
2026-05-05 03:53 20.52245 -103.31264 5028 ft 44 kts 294°
2026-05-05 03:54 20.52313 -103.31426 5030 ft 17 kts 296°
2026-05-05 03:54 20.52392 -103.31506 5030 ft 12 kts 326°
2026-05-05 03:54 20.52462 -103.31556 5029 ft 10 kts 325°
2026-05-05 03:54 20.52522 -103.31592 5029 ft 10 kts 345°
2026-05-05 03:55 20.52597 -103.31572 5029 ft 14 kts 25°
2026-05-05 03:55 20.52687 -103.31529 5028 ft 13 kts 24°
2026-05-05 03:55 20.52760 -103.31487 5028 ft 12 kts 52°
2026-05-05 03:55 20.52742 -103.31398 5028 ft 14 kts 114°
2026-05-05 03:56 20.52695 -103.31295 5028 ft 17 kts 119°
2026-05-05 03:56 20.52649 -103.31177 5026 ft 18 kts 115°
2026-05-05 03:56 20.52592 -103.31047 5029 ft 21 kts 115°
2026-05-05 03:56 20.52537 -103.30907 5029 ft 21 kts 114°
2026-05-05 03:57 20.52474 -103.30759 5029 ft 23 kts 114°
2026-05-05 03:57 20.52412 -103.30612 5027 ft 18 kts 114°
2026-05-05 03:57 20.52360 -103.30489 5026 ft 16 kts 114°
2026-05-05 03:57 20.52310 -103.30368 5028 ft 19 kts 114°
2026-05-05 03:58 20.52276 -103.30271 5028 ft 12 kts 88°
2026-05-05 03:58 20.52346 -103.30228 5028 ft 13 kts 18°
2026-05-05 03:58 20.52398 -103.30177 5029 ft 9 kts 97°
2026-05-05 03:58 20.52410 -103.30140 5029 ft 6 kts 33°
2026-05-05 03:59 20.52437 -103.30129 5029 ft 4 kts 19°
2026-05-05 03:59 20.52447 -103.30126 5029 ft 0 kts 19°